Location: Baia Mare
(47.6567°N, 23.5850°E)
Time: 14:48:25
(UTC+03:00)

ISS - Pass Details

Date: 26 May 2018
Orbit: 403 x 408 km, 51.6° (Epoch: 22 September)

Event Time Altitude Azimuth Distance (km) Brightness Sun altitude
Rises 01:55:54 0° 293° (WNW) 2,323 0.2 -20.9°
Reaches altitude 10° 01:58:00 10° 292° (WNW) 1,460 -0.9 -20.8°
Enters shadow 01:59:29 25° 289° (WNW) 869 -2.1 -20.8°
